FW1304 Weather Reports


Display with metric or nautical units.
time (UTC)temp
F
wind
direction
speed
MPH
gust
MPH
rain 1hr
in
rain 24hr
in
rain mn
in
humidity
%
barometer
mb
20260902051328 72 30 0.0 0.0 0.00 0.00 0.00 71 1011.7
20260902050831 72 30 0.0 0.0 0.00 0.00 0.00 71 1011.7
20260902050316 73 30 0.0 0.0 0.00 0.00 0.00 70 1011.6
20260902045827 73 30 0.0 0.0 0.00 0.00 0.00 69 1011.5
20260902045326 73 30 0.0 0.0 0.00 0.00 0.00 69 1011.5
20260902044829 73 30 0.0 0.0 0.00 0.00 0.00 69 1011.3
20260902044331 73 30 0.0 0.0 0.00 0.00 0.00 69 1011.4
20260902043834 72 30 0.0 0.0 0.00 0.00 0.00 70 1011.4
20260902043338 72 20 0.0 0.0 0.00 0.00 0.00 70 1011.4
20260902042848 72 20 0.0 0.0 0.00 0.00 0.00 72 1011.2
20260902042330 72 28 0.0 0.0 0.00 0.00 0.00 73 1011.0
20260902041843 72 49 0.0 0.0 0.00 0.00 0.00 75 1010.8
20260902041355 72 51 0.0 0.0 0.00 0.00 0.00 74 1010.9
20260902040837 72 46 0.0 0.0 0.00 0.00 0.00 74 1010.7
20260902040340 72 19 0.0 0.0 0.00 0.00 0.00 75 1010.9
20260902035854 72 26 0.0 0.0 0.00 0.00 0.00 75 1010.9
20260902035316 72 38 0.0 0.0 0.00 0.00 0.00 74 1011.1
20260902034842 72 38 0.0 0.0 0.00 0.00 0.00 74 1011.3
20260902034325 72 38 0.0 0.0 0.00 0.00 0.00 73 1011.3
20260902033828 73 38 0.0 0.0 0.00 0.00 0.00 73 1011.3
20260902033357 73 38 0.0 0.0 0.00 0.00 0.00 73 1011.3
20260902032822 73 38 0.0 0.0 0.00 0.00 0.00 72 1011.4
20260902032326 73 38 0.0 0.0 0.00 0.00 0.00 72 1011.5
20260902031829 73 38 0.0 0.0 0.00 0.00 0.00 71 1011.6
20260902031339 73 38 0.0 0.0 0.00 0.00 0.00 72 1011.6
20260902030841 73 38 0.0 0.0 0.00 0.00 0.00 73 1011.7
20260902030343 73 38 0.0 0.0 0.00 0.00 0.00 72 1011.6
20260902025830 73 38 0.0 0.0 0.00 0.00 0.00 72 1011.3
20260902025333 73 38 0.0 0.0 0.00 0.00 0.00 72 1011.3
20260902024831 73 38 0.0 0.0 0.00 0.00 0.00 70 1011.3
20260902024330 74 38 0.0 0.0 0.00 0.00 0.00 68 1011.4
20260902023833 74 38 0.0 0.0 0.00 0.00 0.00 68 1011.2
20260902023316 74 38 0.0 0.0 0.00 0.00 0.00 68 1011.2
20260902022827 74 38 0.0 0.0 0.00 0.00 0.00 67 1011.1
20260902022329 74 38 0.0 0.0 0.00 0.00 0.00 66 1011.2
20260902021832 74 38 0.0 0.0 0.00 0.00 0.00 66 1011.2
20260902021327 75 38 0.0 0.0 0.00 0.00 0.00 65 1011.2
20260902020827 75 38 0.0 0.0 0.00 0.00 0.00 65 1011.2
20260902020359 75 38 0.0 0.0 0.00 0.00 0.00 64 1011.3
20260902015827 75 38 0.0 0.0 0.00 0.00 0.00 63 1011.1
20260902015339 75 38 0.0 0.0 0.00 0.00 0.00 63 1011.1
20260902014839 76 38 0.0 0.0 0.00 0.00 0.00 63 1011.1
20260902014324 76 38 0.0 0.0 0.00 0.00 0.00 61 1011.0
20260902013827 76 38 0.0 0.0 0.00 0.00 0.00 61 1010.9
20260902013340 77 38 0.0 0.0 0.00 0.00 0.00 60 1010.9
20260902012824 77 38 0.0 0.0 0.00 0.00 0.00 59 1010.9
20260902012325 77 38 0.0 0.0 0.00 0.00 0.00 58 1010.9
20260902011837 77 38 0.0 0.0 0.00 0.00 0.00 57 1010.8
20260902011324 78 38 0.0 0.0 0.00 0.00 0.00 57 1010.8
20260902010826 78 38 0.0 0.0 0.00 0.00 0.00 57 1010.8
20260902010328 78 38 0.0 0.0 0.00 0.00 0.00 57 1010.8
20260902005820 78 38 0.0 0.0 0.00 0.00 0.00 55 1010.7
20260902005353 79 38 0.0 0.0 0.00 0.00 0.00 56 1010.6
20260902004832 79 38 0.0 0.0 0.00 0.00 0.00 54 1010.6
20260902004318 79 37 0.0 0.0 0.00 0.00 0.00 53 1010.6
20260902003832 79 19 0.0 0.0 0.00 0.00 0.00 55 1010.8
20260902003336 80 242 0.0 0.0 0.00 0.00 0.00 54 1010.9
20260902002823 80 242 0.0 0.0 0.00 0.00 0.00 53 1010.8
20260902002329 80 242 0.0 0.0 0.00 0.00 0.00 52 1010.8
20260902001832 80 242 0.0 0.0 0.00 0.00 0.00 52 1010.9
20260902001325 81 242 0.0 0.0 0.00 0.00 0.00 52 1010.9
20260902000826 81 242 0.0 0.0 0.00 0.00 0.00 50 1011.0
20260902000329 81 242 0.0 0.0 0.00 0.00 0.00 50 1011.1
20260901235853 81 250 0.0 0.0 0.00 0.00 0.00 49 1011.1
20260901235335 82 249 0.0 0.0 0.00 0.00 0.00 49 1011.1
20260901234842 82 246 0.0 0.0 0.00 0.00 0.00 50 1011.0
20260901234326 82 247 0.0 0.0 0.00 0.00 0.00 49 1011.0
20260901233830 82 248 0.0 0.0 0.00 0.00 0.00 49 1011.0
20260901233316 83 247 0.0 0.0 0.00 0.00 0.00 48 1011.2
20260901232837 83 259 0.0 0.0 0.00 0.00 0.00 48 1011.2
20260901232340 83 252 0.0 0.0 0.00 0.00 0.00 48 1011.2
20260901231844 83 263 0.0 0.0 0.00 0.00 0.00 48 1011.1
20260901231357 83 242 0.0 0.0 0.00 0.00 0.00 49 1011.0
20260901230836 83 248 0.0 1.0 0.00 0.00 0.00 48 1010.9
20260901230340 83 271 0.0 2.0 0.00 0.00 0.00 48 1011.0
20260901225850 83 248 0.0 2.0 0.00 0.00 0.00 48 1011.1
20260901225339 83 247 0.0 0.0 0.00 0.00 0.00 49 1011.1
20260901224840 83 248 0.0 0.0 0.00 0.00 0.00 49 1011.1
20260901224325 83 231 0.0 1.0 0.00 0.00 0.00 48 1011.1
20260901223826 83 256 0.0 1.0 0.00 0.00 0.00 49 1011.1
20260901223338 83 251 0.0 0.0 0.00 0.00 0.00 48 1011.2
20260901222823 83 228 0.0 0.0 0.00 0.00 0.00 48 1011.1
20260901222351 83 227 0.0 0.0 0.00 0.00 0.00 47 1011.0
20260901221834 83 231 0.0 0.0 0.00 0.00 0.00 46 1010.9
20260901221350 83 234 0.0 0.0 0.00 0.00 0.00 45 1011.1
20260901220831 83 204 0.0 0.0 0.00 0.00 0.00 44 1011.0
20260901220316 84 242 0.0 0.0 0.00 0.00 0.00 43 1010.9
20260901215901 84 231 0.0 0.0 0.00 0.00 0.00 42 1010.9
20260901215344 84 229 0.0 0.0 0.00 0.00 0.00 42 1010.9
20260901214842 84 221 0.0 0.0 0.00 0.00 0.00 41 1011.0
20260901214329 84 213 0.0 0.0 0.00 0.00 0.00 41 1010.9
20260901213833 84 248 0.0 0.0 0.00 0.00 0.00 39 1010.7
20260901213405 84 249 0.0 0.0 0.00 0.00 0.00 40 1010.8
20260901212855 84 229 0.0 0.0 0.00 0.00 0.00 38 1010.8
20260901212318 85 246 0.0 0.0 0.00 0.00 0.00 38 1010.8
20260901211850 85 242 0.0 1.0 0.00 0.00 0.00 37 1010.7
20260901211316 85 225 0.0 0.0 0.00 0.00 0.00 38 1010.7
20260901210845 85 233 0.0 0.0 0.00 0.00 0.00 40 1010.7
20260901210337 85 207 0.0 0.0 0.00 0.00 0.00 39 1010.7
20260901205852 85 220 0.0 0.0 0.00 0.00 0.00 37 1010.7
20260901205334 85 223 0.0 0.0 0.00 0.00 0.00 38 1010.6
20260901204833 85 196 0.0 0.0 0.00 0.00 0.00 39 1010.7
20260901204326 86 211 0.0 0.0 0.00 0.00 0.00 38 1010.7
20260901203828 86 211 0.0 1.0 0.00 0.00 0.00 38 1010.7
20260901203343 86 253 0.0 1.0 0.00 0.00 0.00 37 1011.0
20260901202833 87 238 0.0 0.0 0.00 0.00 0.00 37 1011.1
20260901202317 87 205 0.0 0.0 0.00 0.00 0.00 39 1011.1
20260901201820 87 217 0.0 0.0 0.00 0.00 0.00 38 1011.1
20260901201344 88 178 0.0 2.0 0.00 0.00 0.00 38 1011.2
20260901200841 88 209 0.0 2.0 0.00 0.00 0.00 37 1011.2
20260901200344 87 258 0.0 2.0 0.00 0.00 0.00 39 1011.1
20260901195838 87 249 0.0 2.0 0.00 0.00 0.00 37 1011.1
20260901195340 87 215 0.0 0.0 0.00 0.00 0.00 40 1011.1
20260901194841 87 200 0.0 0.0 0.00 0.00 0.00 38 1011.3
20260901194325 87 300 0.0 0.0 0.00 0.00 0.00 37 1011.3
20260901193829 87 248 0.0 0.0 0.00 0.00 0.00 38 1011.4
20260901193332 87 205 0.0 0.0 0.00 0.00 0.00 39 1011.4
20260901192841 86 41 0.0 0.0 0.00 0.00 0.00 42 1011.4
20260901192343 86 28 0.0 0.0 0.00 0.00 0.00 42 1011.4
20260901191817 86 26 0.0 0.0 0.00 0.00 0.00 40 1011.4
20260901191330 86 23 0.0 0.0 0.00 0.00 0.00 40 1011.4
20260901190830 86 5 0.0 0.0 0.00 0.00 0.00 41 1011.4
20260901190332 85 215 0.0 0.0 0.00 0.00 0.00 37 1011.4
20260901185837 85 220 0.0 1.0 0.00 0.00 0.00 37 1011.6
20260901185338 85 253 0.0 1.0 0.00 0.00 0.00 38 1011.6
20260901184819 84 241 0.0 0.0 0.00 0.00 0.00 42 1011.6
20260901184336 83 246 0.0 0.0 0.00 0.00 0.00 42 1011.6
20260901183818 83 234 0.0 0.0 0.00 0.00 0.00 43 1011.6
20260901183333 83 234 0.0 0.0 0.00 0.00 0.00 40 1011.7
20260901182820 83 243 0.0 0.0 0.00 0.00 0.00 41 1011.9
20260901182320 83 246 0.0 0.0 0.00 0.00 0.00 42 1011.8
20260901181824 83 336 0.0 0.0 0.00 0.00 0.00 41 1011.8
20260901181328 84 221 0.0 0.0 0.00 0.00 0.00 45 1011.9
20260901180831 84 244 0.0 0.0 0.00 0.00 0.00 44 1012.0
20260901180334 83 244 0.0 0.0 0.00 0.00 0.00 42 1012.1
20260901175816 84 279 0.0 0.0 0.00 0.00 0.00 42 1012.2
20260901175319 84 279 0.0 0.0 0.00 0.00 0.00 42 1012.1
20260901174851 83 238 0.0 0.0 0.00 0.00 0.00 44 1012.2
20260901174341 83 251 0.0 0.0 0.00 0.00 0.00 43 1012.3
20260901173841 83 229 0.0 0.0 0.00 0.00 0.00 46 1012.4
20260901173344 82 234 0.0 0.0 0.00 0.00 0.00 45 1012.5
20260901172829 82 218 0.0 0.0 0.00 0.00 0.00 48 1012.5
20260901172332 81 229 0.0 0.0 0.00 0.00 0.00 50 1012.5
20260901171831 81 229 0.0 0.0 0.00 0.00 0.00 51 1012.5
20260901171343 80 229 0.0 0.0 0.00 0.00 0.00 52 1012.5
20260901170847 80 240 0.0 0.0 0.00 0.00 0.00 52 1012.5
20260901170340 79 98 0.0 0.0 0.00 0.00 0.00 53 1012.5
20260901165829 79 63 0.0 0.0 0.00 0.00 0.00 53 1012.5
20260901165333 79 44 0.0 0.0 0.00 0.00 0.00 52 1012.6
20260901164843 79 11 0.0 0.0 0.00 0.00 0.00 56 1012.5
20260901164323 78 284 0.0 0.0 0.00 0.00 0.00 57 1012.6
20260901163826 78 284 0.0 0.0 0.00 0.00 0.00 60 1012.6
20260901163319 78 38 0.0 0.0 0.00 0.00 0.00 63 1012.5
20260901162843 78 38 0.0 0.0 0.00 0.00 0.00 62 1012.5
20260901162342 77 46 0.0 0.0 0.00 0.00 0.00 64 1012.4
20260901161845 77 48 0.0 0.0 0.00 0.00 0.00 64 1012.4
20260901161327 77 44 0.0 0.0 0.00 0.00 0.00 65 1012.5
20260901160829 76 297 0.0 0.0 0.00 0.00 0.00 63 1012.6
20260901160326 76 297 0.0 0.0 0.00 0.00 0.00 67 1012.6
20260901155842 76 14 0.0 0.0 0.00 0.00 0.00 67 1012.6
20260901155353 76 55 0.0 0.0 0.00 0.00 0.00 68 1012.7
20260901154834 76 54 0.0 0.0 0.00 0.00 0.00 69 1012.7
20260901154341 76 50 0.0 0.0 0.00 0.00 0.00 68 1012.8
20260901153826 75 50 0.0 0.0 0.00 0.00 0.00 69 1012.7
20260901153337 75 50 0.0 0.0 0.00 0.00 0.00 70 1012.7
20260901152855 75 54 0.0 0.0 0.00 0.00 0.00 68 1012.7
20260901152335 75 360 0.0 0.0 0.00 0.00 0.00 70 1012.8
20260901151838 75 269 0.0 0.0 0.00 0.00 0.00 71 1012.8
20260901151332 74 269 0.0 0.0 0.00 0.00 0.00 72 1012.7
20260901150844 74 269 0.0 0.0 0.00 0.00 0.00 71 1012.7
20260901150316 74 261 0.0 0.0 0.00 0.00 0.00 72 1012.7
20260901145833 74 263 0.0 0.0 0.00 0.00 0.00 72 1012.8
20260901145334 74 277 0.0 0.0 0.00 0.00 0.00 72 1012.9
20260901144816 73 319 0.0 0.0 0.00 0.00 0.00 73 1012.8
20260901144342 73 306 0.0 0.0 0.00 0.00 0.00 73 1012.8
20260901143844 73 321 0.0 0.0 0.00 0.00 0.00 75 1012.7
20260901143317 72 297 0.0 0.0 0.00 0.00 0.00 77 1012.8
20260901142831 72 293 0.0 0.0 0.00 0.00 0.00 80 1012.7
20260901142330 71 296 0.0 0.0 0.00 0.00 0.00 82 1012.8
20260901141843 71 269 0.0 0.0 0.00 0.00 0.00 85 1012.7
20260901141335 70 250 0.0 0.0 0.00 0.00 0.00 87 1012.7
20260901140837 69 304 0.0 0.0 0.00 0.00 0.00 88 1012.7
20260901140338 69 265 0.0 0.0 0.00 0.00 0.00 88 1012.7
20260901135823 68 261 0.0 0.0 0.00 0.00 0.00 88 1012.8
20260901135326 68 257 0.0 0.0 0.00 0.00 0.00 88 1012.8
20260901134829 68 258 0.0 0.0 0.00 0.00 0.00 88 1012.9
20260901134339 67 257 0.0 0.0 0.00 0.00 0.00 88 1012.8
20260901133840 67 246 0.0 0.0 0.00 0.00 0.00 87 1012.9
20260901133331 67 254 0.0 0.0 0.00 0.00 0.00 87 1012.9
20260901132816 66 254 0.0 0.0 0.00 0.00 0.00 88 1012.9
20260901132341 66 254 0.0 0.0 0.00 0.00 0.00 87 1012.7
20260901131833 65 225 0.0 0.0 0.00 0.00 0.00 88 1012.7
20260901131319 65 215 0.0 0.0 0.00 0.00 0.00 88 1012.6
20260901130819 65 214 0.0 0.0 0.00 0.00 0.00 88 1012.5
20260901130318 64 213 0.0 0.0 0.00 0.00 0.00 88 1012.5
20260901125833 64 213 0.0 0.0 0.00 0.00 0.00 88 1012.4
20260901125339 64 213 0.0 0.0 0.00 0.00 0.00 88 1012.3
20260901124840 63 213 0.0 0.0 0.00 0.00 0.00 88 1012.4
20260901124400 63 213 0.0 0.0 0.00 0.00 0.00 88 1012.4
20260901123842 63 213 0.0 0.0 0.00 0.00 0.00 88 1012.4
20260901123316 63 213 0.0 0.0 0.00 0.00 0.00 88 1012.5
20260901122841 63 212 0.0 0.0 0.00 0.00 0.00 88 1012.4
20260901122340 62 209 0.0 0.0 0.00 0.00 0.00 88 1012.4
20260901121844 62 209 0.0 0.0 0.00 0.00 0.00 88 1012.2
20260901121337 62 209 0.0 0.0 0.00 0.00 0.00 88 1012.2
20260901120837 62 209 0.0 0.0 0.00 0.00 0.00 88 1012.1
20260901120317 62 209 0.0 0.0 0.00 0.00 0.00 88 1012.0
20260901115837 62 209 0.0 0.0 0.00 0.00 0.00 88 1011.9
20260901115340 62 209 0.0 0.0 0.00 0.00 0.00 88 1011.9
20260901114844 62 209 0.0 0.0 0.00 0.00 0.00 88 1011.9
20260901114328 62 209 0.0 0.0 0.00 0.00 0.00 88 1011.8
20260901113857 62 209 0.0 0.0 0.00 0.00 0.00 89 1011.7
20260901113338 62 209 0.0 0.0 0.00 0.00 0.00 89 1011.7
20260901112832 63 209 0.0 0.0 0.00 0.00 0.00 89 1011.8
20260901112339 63 209 0.0 0.0 0.00 0.00 0.00 88 1011.6
20260901111842 63 209 0.0 0.0 0.00 0.00 0.00 88 1011.6
20260901111332 63 209 0.0 0.0 0.00 0.00 0.00 88 1011.5
20260901110816 63 209 0.0 0.0 0.00 0.00 0.00 88 1011.6
20260901110316 63 209 0.0 0.0 0.00 0.00 0.00 88 1011.6
20260901105830 63 209 0.0 0.0 0.00 0.00 0.00 88 1011.4
20260901105334 63 209 0.0 0.0 0.00 0.00 0.00 88 1011.5
20260901104817 63 209 0.0 0.0 0.00 0.00 0.00 88 1011.5
20260901104334 63 209 0.0 0.0 0.00 0.00 0.00 88 1011.5
20260901103838 63 209 0.0 0.0 0.00 0.00 0.00 88 1011.6
20260901103342 63 209 0.0 0.0 0.00 0.00 0.00 88 1011.4
20260901102830 63 209 0.0 0.0 0.00 0.00 0.00 88 1011.4
20260901102332 63 209 0.0 0.0 0.00 0.00 0.00 88 1011.5
20260901101836 63 209 0.0 0.0 0.00 0.00 0.00 88 1011.6
20260901101336 63 209 0.0 0.0 0.00 0.00 0.00 88 1011.6
20260901100817 63 208 0.0 0.0 0.00 0.00 0.00 89 1011.5
20260901100320 63 208 0.0 0.0 0.00 0.00 0.00 88 1011.4
20260901095832 63 208 0.0 0.0 0.00 0.00 0.00 89 1011.3
20260901095335 63 208 0.0 0.0 0.00 0.00 0.00 89 1011.2
20260901094838 63 208 0.0 0.0 0.00 0.00 0.00 88 1011.3
20260901094323 63 208 0.0 0.0 0.00 0.00 0.00 88 1011.2
20260901093846 63 208 0.0 0.0 0.00 0.00 0.00 88 1011.1
20260901093338 63 208 0.0 0.0 0.00 0.00 0.00 88 1011.0
20260901092822 63 208 0.0 0.0 0.00 0.00 0.00 88 1011.1
20260901092325 64 208 0.0 0.0 0.00 0.00 0.00 88 1010.9
20260901091827 64 208 0.0 0.0 0.00 0.00 0.00 88 1011.0
20260901091342 64 208 0.0 0.0 0.00 0.00 0.00 88 1011.0
20260901090824 64 208 0.0 0.0 0.00 0.00 0.00 88 1010.9
20260901090357 64 208 0.0 0.0 0.00 0.00 0.00 88 1010.9
20260901085818 64 208 0.0 0.0 0.00 0.00 0.00 88 1010.9
20260901085321 64 208 0.0 0.0 0.00 0.00 0.00 88 1010.9
20260901084854 64 208 0.0 0.0 0.00 0.00 0.00 88 1010.9
20260901084343 64 206 0.0 0.0 0.00 0.00 0.00 88 1010.9
20260901083826 64 234 0.0 0.0 0.00 0.00 0.00 88 1010.9
20260901083340 64 234 0.0 0.0 0.00 0.00 0.00 88 1011.0
20260901082843 65 234 0.0 0.0 0.00 0.00 0.00 88 1010.9
20260901082327 65 234 0.0 0.0 0.00 0.00 0.00 88 1010.9
20260901081827 65 234 0.0 0.0 0.00 0.00 0.00 88 1010.9
20260901081319 65 234 0.0 0.0 0.00 0.00 0.00 88 1010.9
20260901080822 65 234 0.0 0.0 0.00 0.00 0.00 88 1011.0
20260901080350 65 234 0.0 0.0 0.00 0.00 0.00 88 1010.9
20260901075844 65 234 0.0 0.0 0.00 0.00 0.00 88 1010.9
20260901075329 65 234 0.0 0.0 0.00 0.00 0.00 88 1011.0
20260901074841 65 234 0.0 0.0 0.00 0.00 0.00 88 1011.0
20260901074328 65 234 0.0 0.0 0.00 0.00 0.00 88 1011.0
20260901073859 65 234 0.0 0.0 0.00 0.00 0.00 88 1011.0
20260901073340 65 234 0.0 0.0 0.00 0.00 0.00 88 1011.1
20260901072833 65 234 0.0 0.0 0.00 0.00 0.00 88 1011.1
20260901072402 66 234 0.0 0.0 0.00 0.00 0.00 88 1011.2
20260901071843 66 234 0.0 0.0 0.00 0.00 0.00 88 1011.3
20260901071326 66 234 0.0 0.0 0.00 0.00 0.00 88 1011.4
20260901070834 66 234 0.0 0.0 0.00 0.00 0.00 88 1011.4
20260901070337 66 234 0.0 0.0 0.00 0.00 0.00 88 1011.5
20260901065831 66 234 0.0 0.0 0.00 0.00 0.00 88 1011.5
20260901065333 66 234 0.0 0.0 0.00 0.00 0.00 88 1011.5
20260901064837 66 234 0.0 0.0 0.00 0.00 0.00 88 1011.5
20260901064317 66 234 0.0 0.0 0.00 0.00 0.00 88 1011.6
20260901063821 67 234 0.0 0.0 0.00 0.00 0.00 88 1011.6
20260901063332 67 234 0.0 0.0 0.00 0.00 0.00 88 1011.6
20260901062844 67 234 0.0 0.0 0.00 0.00 0.00 87 1011.6
20260901062354 67 234 0.0 0.0 0.00 0.00 0.00 87 1011.6
20260901061905 67 234 0.0 0.0 0.00 0.00 0.00 87 1011.6
20260901061329 67 234 0.0 0.0 0.00 0.00 0.00 87 1011.6
20260901060830 67 234 0.0 0.0 0.00 0.00 0.00 87 1011.6
20260901060403 67 234 0.0 0.0 0.00 0.00 0.00 87 1011.5
20260901055838 68 234 0.0 0.0 0.00 0.00 0.00 87 1011.4
20260901055319 67 234 0.0 0.0 0.00 0.00 0.00 87 1011.4
20260901054818 67 234 0.0 0.0 0.00 0.00 0.00 86 1011.3
20260901054342 68 234 0.0 0.0 0.00 0.00 0.00 86 1011.4
20260901053835 68 234 0.0 0.0 0.00 0.00 0.00 86 1011.4
20260901053338 68 234 0.0 0.0 0.00 0.00 0.00 86 1011.4
20260901052820 68 234 0.0 0.0 0.00 0.00 0.00 86 1011.5
20260901052322 68 234 0.0 0.0 0.00 0.00 0.00 86 1011.4
20260901051834 68 234 0.0 0.0 0.00 0.00 0.00 86 1011.4